Wind_Speed
6 6 6 5 5 5 5 5 5 4 4 4 4 5 5 6 6 5 5 4 4 3 3 3 3 3 3 3 4 6 6 7 6 6 6 6 6 6 7 7 7 8 7
6 6 6 5 5 5 5 4 4 4 4 4 4 4 5 5 5 6 5 4 4 3 4 4 3 3 4 3 4 6 6 6 6 6 5 5 5 7 7 7 7 8 7
6 6 6 5 5 4 4 4 4 4 4 4 4 4 4 5 5 6 5 4 4 4 4 4 4 3 4 4 4 5 6 6 6 6 7 6 6 6 7 7 7 6 6
6 6 6 5 5 5 4 3 3 3 4 4 4 4 4 4 5 5 5 5 4 4 3 4 4 4 3 3 3 4 4 6 5 5 5 5 5 5 6 6 6 5 5
5 5 6 5 5 5 4 4 3 3 3 4 4 4 3 4 4 4 5 4 3 3 3 4 4 4 3 3 3 3 4 5 4 4 4 4 4 4 5 5 5 5 5
5 5 5 5 5 5 4 4 3 3 3 3 4 3 3 3 3 3 3 2 2 2 3 3 3 4 4 4 3 4 4 4 4 3 3 3 3 4 5 5 5 5 5
6 5 5 5 5 5 4 4 4 3 3 3 3 3 3 3 3 3 2 2 1 1 2 3 4 5 6 5 4 4 4 4 4 3 3 3 3 4 5 5 5 5 5
6 5 5 5 5 4 4 4 4 4 3 3 3 4 4 3 3 3 2 1 1 1 2 3 4 5 5 5 4 4 4 4 4 4 3 3 3 3 4 4 4 4 4
6 6 5 5 5 4 4 4 4 4 4 4 3 3 4 3 3 3 1 0 0 1 2 3 3 5 5 5 5 5 5 5 5 4 4 3 3 3 3 3 4 4 4
6 6 6 6 5 4 4 4 4 4 4 4 3 4 4 4 3 3 2 1 2 2 2 3 4 6 6 6 6 6 5 5 5 4 5 4 3 3 3 3 4 5 5
7 7 7 7 6 5 5 5 4 4 5 5 4 4 4 4 4 3 3 2 2 3 3 3 4 5 6 6 6 6 6 6 5 5 5 5 4 4 4 4 5 5 5
7 7 7 7 7 6 6 5 5 5 6 6 6 6 5 5 5 4 3 2 2 3 3 4 4 5 5 6 5 6 6 6 6 5 5 5 5 5 5 5 6 6 6
8 8 8 7 7 7 6 6 6 6 6 7 7 7 6 6 5 5 5 4 3 3 4 5 5 5 6 6 6 6 6 5 6 6 6 6 7 6 6 6 7 7 8
9 9 8 8 8 7 7 7 7 7 7 7 7 7 7 7 7 6 6 5 5 5 5 6 6 7 7 7 7 7 7 6 7 7 7 7 7 7 7 7 7 8 8
10 10 10 9 9 8 8 8 8 8 8 8 8 8 8 8 8 8 7 7 7 6 7 7 7 7 8 9 9 9 8 8 8 8 8 8 8 8 8 8 8 8 8
11 11 10 10 10 9 9 9 9 9 9 9 9 9 9 9 9 9 8 8 8 7 7 8 8 8 8 9 10 10 10 9 9 9 8 8 9 9 8 8 8 9 9
13 12 11 11 11 10 10 9 10 9 9 9 9 9 9 9 9 9 9 8 8 8 8 8 9 9 9 10 10 10 10 11 10 10 9 9 9 9 9 8 9 9 9
13 13 12 11 11 11 11 11 10 10 10 9 9 9 10 10 10 10 10 10 10 9 9 10 10 10 10 10 10 11 11 11 11 11 10 10 9 9 9 9 9 9 10
14 14 13 13 12 12 12 11 10 10 10 10 9 9 10 10 10 10 10 10 10 9 10 10 10 10 11 11 11 12 12 12 12 12 11 11 10 10 10 10 10 10 10
15 15 14 14 13 13 12 11 10 11 10 10 10 10 10 10 10 10 10 11 11 10 11 11 11 11 11 11 12 12 12 12 13 12 12 12 11 11 11 12 12 11 11
16 16 15 14 14 13 13 12 11 12 11 11 11 11 11 11 10 11 11 12 12 11 11 12 12 12 12 12 12 12 12 12 12 12 13 13 12 12 11 12 13 13 13
17 17 16 16 15 14 14 14 13 13 14 14 14 14 13 12 12 12 12 12 12 12 12 12 13 13 12 12 12 12 12 13 12 12 13 12 12 12 12 12 12 13 13
17 17 17 16 16 16 15 16 15 16 15 14 14 14 15 14 13 13 14 14 13 13 13 13 13 13 12 12 13 13 13 13 13 13 13 13 13 13 13 14 14 13 13
18 18 18 17 17 17 17 17 17 17 16 15 15 15 16 16 15 14 15 14 14 14 14 14 13 13 13 13 13 13 13 13 13 13 13 14 15 14 14 14 14 14 14
19 18 18 18 18 18 18 18 17 17 17 17 17 16 16 17 16 16 16 16 15 15 15 15 14 14 15 15 14 14 14 14 14 13 13 14 15 15 15 15 14 14 14
19 19 19 18 19 19 19 18 18 18 18 18 18 18 18 18 18 17 17 17 17 16 16 16 16 15 16 16 16 15 15 15 15 15 14 15 14 15 15 15 15 15 15
Wind_Direction
20 21 22 16 17 19 20 23 29 35 40 42 48 51 52 49 52 58 55 57 63 82 114 128 138 130 124 128 131 144 166 178 190 191 196 191 189 192 192 193 193 191 189
15 21 23 27 28 25 19 23 35 40 37 36 38 44 46 46 51 56 56 68 77 94 116 121 140 135 124 131 143 139 149 167 172 177 183 183 190 195 190 191 188 195 194
13 20 21 19 21 22 19 24 35 39 38 35 35 41 42 46 51 56 61 76 89 104 118 132 143 146 130 145 158 148 152 164 174 176 172 171 181 187 186 179 183 185 191
16 21 19 16 20 19 13 14 26 35 33 31 37 42 44 51 56 64 68 81 94 104 117 140 149 154 156 167 160 161 162 162 164 165 171 166 167 170 177 176 183 191 190
10 13 10 7 7 6 8 12 24 33 29 25 28 35 42 54 54 62 73 79 88 111 123 142 153 161 165 159 147 167 173 165 164 166 173 172 173 170 167 170 176 189 192
7 3 358 355 354 359 1 6 19 29 26 20 21 26 32 43 41 46 67 84 97 117 127 146 163 175 174 173 171 165 168 167 170 158 155 148 154 159 171 177 182 192 200
0 353 348 350 350 353 356 4 13 18 19 21 19 16 20 23 29 30 45 81 110 139 140 137 162 178 178 178 181 174 171 167 167 157 159 165 163 165 172 177 192 198 203
351 347 345 346 345 346 349 356 7 10 9 9 14 19 16 13 16 9 22 82 94 133 171 153 162 172 184 190 186 177 167 171 174 174 178 185 186 185 188 193 191 197 196
347 345 341 340 338 335 339 344 353 358 352 350 2 8 7 6 1 351 355 133 168 130 168 176 187 189 189 194 194 190 184 186 187 187 186 190 203 205 204 201 197 189 193
344 341 339 332 329 324 324 325 333 338 332 331 344 347 345 341 342 340 334 282 232 219 199 190 187 193 196 197 198 200 202 203 203 199 194 201 212 221 229 229 218 207 205
333 336 338 330 323 316 313 314 314 319 319 316 319 320 321 321 319 320 320 288 245 223 204 195 198 201 204 208 210 212 213 218 217 213 214 220 229 236 242 248 237 233 227
323 327 334 332 324 315 311 310 309 310 311 308 305 303 303 305 302 301 300 275 253 235 220 214 213 208 210 214 210 210 213 216 220 225 227 235 242 247 250 250 246 242 240
317 319 322 325 322 316 308 304 306 307 306 301 299 297 295 293 290 290 290 284 265 253 246 238 233 227 223 222 220 219 224 226 227 232 238 246 250 251 254 257 255 250 245
305 307 312 317 314 309 303 298 298 300 300 298 293 289 290 285 280 282 281 278 267 252 247 246 240 239 235 230 225 228 233 236 236 239 244 251 256 256 255 255 254 252 245
299 303 307 309 307 304 300 297 298 301 298 290 288 284 282 280 277 278 277 269 262 256 252 250 245 242 239 235 230 230 234 237 239 243 249 253 254 255 253 252 252 250 248
291 294 299 305 303 298 297 298 298 294 295 293 286 281 279 277 275 275 276 271 261 255 252 250 246 245 245 243 236 233 234 236 241 246 249 254 254 253 252 253 251 248 246
289 291 297 302 303 298 295 295 296 292 290 290 285 282 278 273 273 276 276 271 263 253 249 251 250 248 248 246 242 239 239 240 244 249 251 255 255 252 250 252 253 251 247
291 292 296 299 303 300 295 290 291 291 291 288 284 281 276 271 268 271 271 268 263 256 252 250 252 249 249 248 246 243 242 244 246 248 251 255 257 254 249 248 250 251 252
289 291 293 294 296 293 291 286 285 287 289 287 285 283 278 273 269 268 266 264 262 258 256 252 252 250 248 248 248 246 245 245 247 249 251 253 256 255 253 251 249 250 252
286 287 289 289 288 287 286 280 281 284 287 286 284 282 275 271 269 266 266 264 261 259 258 255 256 251 249 248 246 246 245 246 246 248 250 252 254 254 252 251 248 250 253
283 283 282 281 281 283 284 280 278 282 283 284 282 280 276 275 275 272 268 265 261 259 258 256 255 250 252 250 244 244 244 247 250 250 249 250 251 251 252 251 249 250 253
281 280 280 277 274 277 280 282 282 281 281 282 281 275 274 276 275 272 268 264 260 259 259 256 253 253 253 247 243 244 245 248 251 251 249 249 249 249 249 248 248 251 252
279 278 276 275 272 271 274 279 280 281 281 284 283 275 271 273 272 271 265 263 261 260 260 257 251 250 249 248 244 245 247 248 248 246 246 246 248 251 252 251 252 252 252
275 273 272 271 270 270 272 276 277 280 279 280 281 276 274 271 268 266 265 260 259 259 259 256 250 249 248 247 247 249 245 245 246 245 246 247 248 252 254 255 253 254 255
274 272 271 269 269 270 271 272 275 277 276 277 278 277 275 270 266 264 264 259 259 260 258 256 253 251 249 248 248 250 247 245 248 246 247 250 251 251 252 254 254 256 258
273 272 270 269 269 270 271 271 273 274 274 275 277 276 274 269 264 263 264 262 261 262 260 256 254 253 251 249 249 249 248 248 249 248 249 250 252 251 251 253 256 258 258
Height
5894 5893 5892 5891 5890 5889 5888 5887 5886 5885 5884 5883 5882 5881 5880 5879 5878 5877 5876 5875 5874 5874 5873 5874 5874 5875 5875 5875 5875 5875 5875 5877 5877 5878 5879 5879 5879 5880 5881 5882 5883 5884 5884
5894 5893 5892 5891 5890 5889 5888 5887 5886 5885 5884 5883 5882 5881 5880 5879 5878 5876 5874 5873 5873 5873 5873 5874 5874 5875 5875 5875 5876 5875 5876 5877 5877 5878 5878 5879 5879 5880 5881 5882 5883 5883 5884
5894 5893 5892 5891 5890 5889 5888 5887 5886 5885 5884 5883 5882 5881 5880 5879 5877 5875 5874 5873 5873 5873 5873 5874 5874 5875 5875 5875 5876 5876 5877 5877 5877 5878 5878 5879 5879 5880 5881 5882 5882 5883 5884
5894 5893 5892 5891 5890 5889 5888 5887 5886 5885 5884 5883 5882 5881 5880 5879 5878 5876 5874 5874 5874 5874 5874 5874 5874 5875 5875 5875 5876 5877 5877 5877 5878 5878 5878 5879 5879 5880 5881 5882 5882 5883 5884
5893 5892 5891 5890 5889 5888 5887 5886 5885 5885 5884 5883 5882 5880 5880 5879 5878 5877 5875 5875 5875 5874 5874 5874 5875 5875 5875 5875 5876 5877 5877 5878 5878 5879 5879 5879 5880 5880 5881 5882 5882 5883 5884
5893 5892 5891 5890 5889 5888 5887 5886 5885 5884 5883 5882 5881 5880 5879 5878 5878 5877 5876 5875 5875 5875 5874 5874 5875 5875 5875 5875 5876 5877 5877 5878 5878 5879 5879 5880 5880 5881 5881 5882 5883 5883 5884
5892 5891 5890 5890 5889 5888 5887 5885 5884 5884 5883 5882 5881 5880 5879 5878 5877 5877 5876 5876 5875 5875 5874 5874 5874 5874 5875 5875 5876 5877 5878 5878 5879 5879 5879 5880 5881 5881 5881 5882 5882 5883 5883
5892 5891 5890 5889 5888 5887 5886 5885 5884 5883 5882 5881 5880 5880 5879 5878 5877 5877 5876 5875 5875 5875 5874 5874 5874 5874 5875 5876 5877 5877 5878 5879 5879 5879 5880 5880 5881 5881 5881 5882 5882 5882 5883
5891 5890 5889 5888 5887 5886 5885 5885 5884 5883 5882 5881 5880 5879 5879 5878 5877 5876 5875 5875 5875 5874 5874 5874 5874 5874 5875 5876 5877 5877 5878 5879 5879 5880 5880 5881 5881 5881 5881 5881 5882 5882 5883
5891 5890 5889 5888 5886 5885 5884 5884 5883 5882 5881 5880 5880 5879 5878 5877 5876 5875 5875 5874 5874 5874 5874 5874 5873 5873 5875 5876 5876 5877 5878 5878 5879 5879 5880 5880 5881 5881 5881 5881 5881 5882 5882
5890 5889 5888 5887 5886 5885 5884 5883 5882 5881 5880 5879 5878 5878 5877 5876 5875 5875 5874 5874 5874 5874 5874 5874 5873 5874 5875 5875 5876 5877 5877 5877 5878 5878 5879 5879 5880 5880 5880 5880 5881 5881 5881
5889 5888 5887 5886 5885 5884 5883 5881 5880 5880 5879 5878 5877 5876 5875 5875 5874 5873 5873 5873 5873 5873 5873 5873 5873 5873 5874 5874 5875 5875 5876 5877 5877 5877 5878 5878 5879 5879 5879 5879 5880 5880 5880
5888 5886 5885 5884 5883 5882 5881 5880 5879 5878 5877 5876 5876 5875 5874 5873 5873 5872 5872 5871 5871 5871 5872 5872 5872 5872 5873 5873 5873 5874 5875 5875 5876 5876 5877 5877 5877 5878 5878 5878 5878 5878 5879
5886 5885 5883 5883 5882 5881 5879 5878 5877 5876 5875 5875 5874 5873 5873 5872 5871 5871 5870 5870 5870 5870 5870 5870 5871 5871 5871 5872 5872 5873 5873 5874 5874 5875 5875 5876 5876 5876 5876 5876 5876 5877 5877
5884 5883 5882 5881 5880 5879 5878 5876 5875 5874 5874 5873 5872 5871 5871 5870 5870 5869 5869 5869 5868 5868 5868 5869 5869 5869 5870 5870 5870 5871 5872 5872 5873 5873 5874 5874 5874 5875 5875 5875 5875 5875 5875
5882 5881 5880 5879 5878 5877 5875 5874 5873 5872 5871 5870 5870 5869 5868 5867 5867 5867 5867 5866 5866 5866 5866 5867 5867 5867 5868 5868 5869 5869 5870 5871 5871 5872 5872 5872 5872 5873 5873 5873 5873 5873 5873
5879 5878 5877 5876 5875 5874 5873 5872 5870 5869 5868 5868 5867 5866 5866 5865 5865 5864 5864 5864 5864 5864 5864 5864 5865 5865 5866 5866 5867 5867 5868 5868 5869 5870 5870 5870 5870 5870 5871 5871 5871 5871 5872
5877 5875 5875 5874 5873 5872 5871 5869 5868 5867 5866 5865 5865 5864 5863 5863 5862 5862 5862 5862 5861 5862 5862 5862 5863 5863 5863 5864 5864 5865 5865 5866 5867 5867 5868 5868 5868 5868 5868 5869 5869 5869 5870
5873 5872 5872 5871 5870 5869 5868 5867 5865 5864 5863 5863 5862 5861 5861 5860 5859 5859 5859 5860 5860 5860 5860 5860 5860 5860 5861 5861 5861 5862 5863 5864 5864 5865 5865 5865 5866 5866 5866 5866 5867 5867 5868
5870 5869 5868 5867 5867 5866 5865 5864 5863 5862 5861 5860 5860 5859 5858 5858 5857 5856 5856 5856 5857 5857 5857 5858 5858 5858 5858 5858 5859 5859 5860 5861 5862 5862 5863 5863 5863 5863 5864 5864 5864 5865 5865
5866 5865 5865 5864 5863 5863 5862 5861 5860 5859 5858 5858 5857 5856 5856 5855 5854 5854 5854 5854 5854 5854 5855 5855 5855 5855 5855 5855 5856 5857 5857 5858 5859 5859 5860 5860 5860 5861 5861 5861 5861 5862 5863
5862 5861 5860 5860 5860 5859 5859 5858 5857 5856 5855 5855 5854 5853 5853 5852 5852 5851 5851 5851 5851 5851 5852 5852 5852 5852 5852 5853 5853 5854 5855 5856 5856 5856 5857 5857 5857 5858 5858 5858 5859 5859 5860
5857 5857 5856 5856 5855 5855 5855 5854 5854 5853 5852 5852 5851 5850 5849 5849 5849 5848 5848 5848 5848 5848 5848 5849 5849 5849 5850 5850 5850 5851 5852 5853 5853 5854 5854 5854 5855 5855 5856 5856 5856 5857 5857
5853 5852 5852 5851 5851 5851 5850 5850 5850 5849 5848 5848 5847 5846 5845 5845 5845 5845 5844 5844 5844 5844 5845 5845 5845 5846 5847 5847 5847 5848 5849 5849 5850 5850 5851 5851 5852 5852 5853 5853 5853 5854 5854
5848 5847 5847 5846 5846 5846 5846 5846 5845 5845 5844 5843 5843 5842 5841 5841 5841 5841 5841 5841 5841 5841 5841 5841 5841 5842 5843 5844 5844 5845 5845 5846 5846 5847 5848 5848 5849 5849 5849 5850 5850 5850 5851
5842 5842 5842 5841 5841 5841 5841 5841 5841 5840 5840 5839 5838 5838 5837 5836 5836 5837 5837 5837 5837 5837 5837 5837 5838 5838 5839 5840 5840 5841 5842 5842 5843 5843 5844 5845 5845 5845 5846 5846 5847 5847 5847